QPF
0.00 0.00 0.00 0.00 0.00 0.00 0.00 0.00 0.00 0.00 0.00 0.00 0.01 0.02 0.03 0.02 0.00 0.00 0.00 0.00 0.01 0.01 0.04 0.03 0.02 0.00 0.01 0.00 0.00 0.00 0.00 0.00 0.00 0.00 0.00 0.00 0.00 0.00 0.00 0.00 0.00 0.00 0.00
0.00 0.00 0.00 0.00 0.00 0.00 0.00 0.00 0.00 0.00 0.00 0.00 0.00 0.02 0.05 0.02 0.00 0.00 0.00 0.00 0.00 0.00 0.00 0.02 0.06 0.10 0.08 0.05 0.03 0.00 0.00 0.00 0.00 0.00 0.00 0.00 0.00 0.00 0.00 0.00 0.00 0.00 0.00
0.00 0.00 0.00 0.00 0.00 0.00 0.00 0.00 0.00 0.00 0.00 0.00 0.00 0.02 0.06 0.02 0.01 0.00 0.00 0.00 0.00 0.00 0.00 0.00 0.01 0.01 0.04 0.04 0.06 0.07 0.03 0.00 0.00 0.00 0.00 0.00 0.00 0.00 0.00 0.00 0.00 0.00 0.00
0.00 0.00 0.00 0.00 0.00 0.00 0.00 0.00 0.00 0.00 0.00 0.00 0.00 0.02 0.09 0.01 0.01 0.00 0.00 0.00 0.00 0.00 0.00 0.01 0.01 0.01 0.01 0.00 0.02 0.02 0.05 0.03 0.00 0.00 0.00 0.00 0.00 0.00 0.00 0.00 0.00 0.00 0.00
0.00 0.00 0.00 0.00 0.00 0.00 0.00 0.00 0.00 0.00 0.00 0.00 0.00 0.01 0.04 0.04 0.02 0.00 0.00 0.00 0.02 0.02 0.01 0.00 0.01 0.01 0.02 0.01 0.00 0.00 0.00 0.00 0.00 0.00 0.00 0.00 0.00 0.00 0.00 0.00 0.00 0.00 0.00
0.00 0.00 0.00 0.00 0.00 0.00 0.00 0.00 0.00 0.00 0.00 0.00 0.00 0.01 0.03 0.06 0.07 0.05 0.05 0.05 0.06 0.03 0.02 0.01 0.00 0.01 0.02 0.04 0.11 0.35 0.16 0.02 0.00 0.00 0.00 0.00 0.00 0.00 0.00 0.00 0.00 0.00 0.00
0.00 0.00 0.00 0.00 0.00 0.00 0.00 0.00 0.00 0.00 0.00 0.00 0.00 0.00 0.01 0.01 0.03 0.04 0.05 0.02 0.01 0.01 0.03 0.04 0.03 0.01 0.01 0.00 0.00 0.05 0.06 0.09 0.03 0.00 0.00 0.00 0.00 0.00 0.00 0.00 0.00 0.00 0.00
0.00 0.00 0.00 0.00 0.00 0.00 0.00 0.00 0.00 0.00 0.00 0.00 0.00 0.00 0.00 0.01 0.01 0.00 0.00 0.00 0.01 0.03 0.03 0.01 0.03 0.02 0.01 0.00 0.00 0.00 0.00 0.02 0.06 0.03 0.01 0.00 0.00 0.00 0.00 0.00 0.00 0.00 0.00
0.00 0.00 0.00 0.00 0.00 0.00 0.00 0.00 0.00 0.00 0.00 0.00 0.00 0.00 0.00 0.01 0.01 0.00 0.00 0.00 0.00 0.01 0.07 0.06 0.02 0.01 0.03 0.04 0.02 0.02 0.01 0.01 0.02 0.02 0.02 0.02 0.01 0.01 0.01 0.00 0.00 0.00 0.00
0.00 0.00 0.00 0.00 0.00 0.00 0.00 0.00 0.00 0.00 0.00 0.00 0.00 0.00 0.00 0.00 0.00 0.00 0.00 0.00 0.00 0.00 0.00 0.02 0.06 0.05 0.03 0.01 0.00 0.01 0.00 0.00 0.00 0.00 0.00 0.01 0.01 0.01 0.03 0.01 0.00 0.01 0.01
0.00 0.00 0.00 0.00 0.00 0.00 0.00 0.00 0.00 0.00 0.00 0.00 0.00 0.00 0.00 0.00 0.00 0.00 0.00 0.00 0.00 0.00 0.00 0.00 0.02 0.04 0.03 0.03 0.02 0.01 0.01 0.00 0.00 0.00 0.00 0.01 0.01 0.01 0.02 0.03 0.03 0.03 0.04
0.00 0.00 0.00 0.00 0.00 0.00 0.00 0.00 0.00 0.00 0.00 0.00 0.00 0.00 0.00 0.00 0.00 0.00 0.00 0.00 0.00 0.00 0.00 0.00 0.00 0.00 0.01 0.01 0.01 0.01 0.01 0.00 0.00 0.00 0.00 0.01 0.02 0.03 0.04 0.05 0.05 0.03 0.02
0.00 0.00 0.00 0.00 0.00 0.00 0.00 0.00 0.00 0.00 0.00 0.00 0.00 0.00 0.00 0.00 0.00 0.00 0.00 0.00 0.00 0.00 0.00 0.00 0.00 0.00 0.00 0.00 0.00 0.00 0.00 0.00 0.00 0.00 0.00 0.00 0.00 0.00 0.00 0.01 0.01 0.01 0.00
0.00 0.00 0.00 0.00 0.00 0.00 0.00 0.00 0.00 0.00 0.00 0.00 0.00 0.00 0.00 0.00 0.00 0.00 0.00 0.00 0.00 0.00 0.00 0.00 0.00 0.00 0.00 0.00 0.00 0.00 0.00 0.00 0.00 0.00 0.00 0.00 0.00 0.00 0.00 0.00 0.00 0.00 0.00
0.00 0.00 0.00 0.00 0.00 0.00 0.00 0.00 0.00 0.00 0.00 0.00 0.00 0.00 0.00 0.00 0.00 0.00 0.00 0.00 0.00 0.00 0.00 0.00 0.00 0.00 0.00 0.00 0.00 0.00 0.00 0.00 0.00 0.00 0.00 0.00 0.00 0.00 0.00 0.00 0.00 0.00 0.00
0.00 0.00 0.00 0.00 0.00 0.00 0.00 0.00 0.00 0.00 0.00 0.00 0.00 0.00 0.00 0.00 0.00 0.00 0.00 0.00 0.00 0.00 0.00 0.00 0.00 0.00 0.00 0.00 0.00 0.00 0.00 0.00 0.00 0.00 0.00 0.00 0.00 0.00 0.00 0.00 0.00 0.00 0.00
0.00 0.00 0.00 0.00 0.00 0.00 0.00 0.00 0.00 0.00 0.00 0.00 0.00 0.00 0.00 0.00 0.00 0.00 0.00 0.00 0.00 0.00 0.00 0.00 0.00 0.00 0.00 0.00 0.00 0.00 0.00 0.00 0.01 0.00 0.00 0.00 0.00 0.00 0.00 0.00 0.00 0.00 0.00
0.00 0.00 0.00 0.00 0.00 0.00 0.00 0.00 0.00 0.00 0.00 0.00 0.00 0.00 0.00 0.00 0.00 0.00 0.00 0.00 0.00 0.00 0.00 0.00 0.00 0.00 0.00 0.00 0.00 0.00 0.00 0.00 0.00 0.00 0.00 0.00 0.00 0.00 0.00 0.00 0.01 0.01 0.01
0.00 0.00 0.00 0.00 0.00 0.00 0.00 0.00 0.00 0.00 0.00 0.00 0.00 0.00 0.00 0.00 0.00 0.00 0.00 0.00 0.00 0.00 0.00 0.00 0.00 0.00 0.00 0.00 0.00 0.00 0.00 0.00 0.00 0.00 0.00 0.00 0.00 0.00 0.01 0.00 0.01 0.01 0.01
0.00 0.00 0.00 0.00 0.00 0.00 0.00 0.00 0.00 0.00 0.00 0.00 0.00 0.00 0.00 0.00 0.00 0.00 0.00 0.00 0.00 0.00 0.00 0.00 0.00 0.00 0.00 0.00 0.00 0.00 0.00 0.00 0.00 0.00 0.00 0.00 0.00 0.01 0.01 0.01 0.01 0.01 0.01
0.00 0.00 0.00 0.00 0.00 0.00 0.00 0.00 0.00 0.00 0.00 0.00 0.00 0.00 0.00 0.00 0.00 0.00 0.00 0.00 0.00 0.00 0.00 0.00 0.00 0.00 0.00 0.00 0.00 0.00 0.00 0.00 0.00 0.00 0.00 0.00 0.00 0.01 0.01 0.00 0.00 0.00 0.01
0.00 0.00 0.00 0.00 0.00 0.00 0.00 0.00 0.00 0.00 0.00 0.00 0.00 0.00 0.00 0.00 0.00 0.00 0.00 0.00 0.00 0.00 0.00 0.00 0.00 0.00 0.00 0.00 0.00 0.00 0.00 0.00 0.00 0.00 0.00 0.00 0.00 0.00 0.00 0.00 0.00 0.00 0.00
0.00 0.00 0.00 0.00 0.00 0.00 0.00 0.00 0.00 0.00 0.00 0.00 0.00 0.00 0.00 0.00 0.00 0.00 0.00 0.00 0.00 0.00 0.00 0.00 0.00 0.00 0.00 0.00 0.00 0.00 0.00 0.00 0.00 0.00 0.00 0.00 0.00 0.00 0.00 0.00 0.00 0.00 0.00
0.00 0.00 0.00 0.00 0.00 0.00 0.00 0.00 0.00 0.00 0.00 0.00 0.00 0.00 0.00 0.00 0.00 0.00 0.00 0.00 0.00 0.00 0.00 0.00 0.00 0.00 0.00 0.00 0.00 0.00 0.00 0.00 0.00 0.00 0.00 0.00 0.00 0.00 0.00 0.00 0.00 0.00 0.00
0.00 0.00 0.00 0.00 0.00 0.00 0.00 0.00 0.00 0.00 0.00 0.00 0.00 0.00 0.00 0.00 0.00 0.00 0.00 0.00 0.00 0.00 0.00 0.00 0.00 0.00 0.00 0.00 0.00 0.00 0.00 0.00 0.00 0.00 0.00 0.00 0.00 0.00 0.00 0.00 0.00 0.00 0.00
0.00 0.00 0.00 0.00 0.00 0.00 0.00 0.00 0.00 0.00 0.00 0.00 0.00 0.00 0.00 0.00 0.00 0.00 0.00 0.00 0.00 0.00 0.00 0.00 0.00 0.00 0.00 0.00 0.00 0.00 0.00 0.00 0.00 0.00 0.00 0.00 0.00 0.00 0.00 0.00 0.00 0.00 0.00
MSLP
1024.10 1023.33 1022.54 1021.66 1020.86 1020.11 1019.24 1018.25 1017.22 1016.06 1014.99 1014.02 1012.91 1011.89 1010.79 1010.23 1009.85 1009.42 1009.38 1009.18 1009.23 1009.29 1009.27 1009.25 1009.41 1009.75 1009.91 1010.10 1010.18 1010.32 1010.33 1010.26 1009.87 1009.40 1009.74 1009.80 1010.17 1010.27 1010.58 1010.73 1011.09 1011.40 1011.65
1024.28 1023.52 1022.68 1021.83 1020.97 1020.19 1019.28 1018.39 1017.38 1016.34 1015.13 1014.28 1012.91 1011.80 1010.69 1009.79 1009.66 1009.29 1009.14 1009.08 1008.97 1008.94 1009.02 1009.12 1009.29 1009.24 1009.34 1009.46 1009.67 1009.81 1009.87 1009.90 1009.84 1009.55 1009.68 1009.78 1009.96 1010.17 1010.22 1010.55 1010.90 1011.15 1011.29
1024.36 1023.68 1022.85 1022.01 1021.09 1020.26 1019.45 1018.63 1017.66 1016.58 1015.49 1014.50 1013.28 1011.75 1010.27 1009.17 1009.14 1009.19 1009.08 1008.96 1008.90 1008.86 1008.93 1008.90 1008.86 1009.08 1009.16 1009.29 1009.38 1009.42 1009.53 1009.43 1009.47 1009.42 1009.43 1009.70 1009.91 1010.18 1010.32 1010.57 1010.74 1010.86 1011.09
1024.42 1023.76 1023.04 1022.20 1021.32 1020.57 1019.77 1018.91 1018.02 1016.98 1015.90 1014.86 1013.92 1012.23 1010.62 1009.09 1008.48 1009.11 1009.30 1009.24 1009.09 1008.97 1008.91 1008.82 1008.70 1008.63 1008.48 1008.60 1008.86 1008.97 1009.15 1009.33 1009.33 1009.34 1009.34 1009.57 1009.86 1010.23 1010.48 1010.49 1010.74 1010.98 1010.99
1024.58 1023.91 1023.22 1022.49 1021.68 1020.91 1020.08 1019.11 1018.33 1017.43 1016.35 1015.40 1014.44 1013.28 1011.76 1011.07 1010.50 1010.30 1010.09 1009.78 1009.65 1009.51 1009.18 1008.80 1008.42 1008.22 1008.16 1008.12 1008.17 1008.18 1008.44 1008.73 1009.07 1009.12 1009.23 1009.51 1009.86 1010.35 1010.57 1010.78 1011.03 1011.16 1011.33
1024.83 1024.16 1023.46 1022.67 1021.85 1021.15 1020.37 1019.45 1018.72 1017.94 1016.96 1016.01 1015.13 1014.30 1013.28 1012.19 1011.64 1011.40 1011.28 1010.94 1010.60 1010.12 1009.69 1009.23 1008.51 1008.13 1007.93 1007.74 1007.49 1007.20 1007.97 1008.16 1008.32 1008.53 1008.80 1009.10 1009.52 1009.82 1010.25 1010.69 1010.97 1011.24 1011.42
1025.13 1024.43 1023.71 1022.92 1022.13 1021.36 1020.64 1019.82 1018.98 1018.22 1017.59 1016.63 1015.93 1015.21 1014.40 1013.07 1012.51 1012.26 1012.00 1011.61 1011.12 1010.65 1010.20 1009.64 1008.98 1008.56 1008.10 1007.91 1007.97 1007.99 1008.10 1007.83 1007.60 1007.85 1008.18 1008.68 1009.01 1009.30 1009.72 1010.24 1010.44 1010.46 1010.52
1025.40 1024.70 1023.99 1023.22 1022.53 1021.65 1020.90 1020.18 1019.50 1018.58 1017.96 1017.46 1016.79 1016.10 1015.23 1014.34 1013.35 1013.16 1012.68 1012.29 1011.80 1011.30 1010.79 1010.13 1009.62 1009.06 1008.49 1008.58 1008.64 1008.64 1008.70 1008.49 1007.98 1007.84 1008.16 1008.46 1008.53 1008.69 1009.03 1009.22 1009.53 1009.93 1010.18
1025.60 1025.01 1024.36 1023.62 1022.85 1022.12 1021.35 1020.55 1020.02 1019.31 1018.49 1017.94 1017.53 1016.88 1016.09 1015.30 1013.96 1013.85 1013.45 1012.91 1012.39 1011.96 1011.29 1010.45 1010.01 1009.59 1009.43 1009.42 1009.34 1009.36 1009.34 1009.27 1009.01 1008.71 1008.54 1008.39 1008.29 1008.04 1008.36 1008.85 1009.12 1009.45 1009.51
1025.86 1025.35 1024.78 1024.06 1023.30 1022.49 1021.87 1021.09 1020.53 1019.84 1019.32 1018.64 1018.04 1017.55 1016.88 1016.05 1014.94 1014.32 1014.26 1013.84 1013.24 1012.64 1012.04 1011.40 1010.35 1009.99 1009.90 1009.98 1010.09 1010.06 1009.96 1009.99 1009.91 1009.72 1009.46 1009.18 1008.96 1008.75 1008.38 1008.46 1008.44 1008.62 1008.93
1026.21 1025.60 1025.03 1024.39 1023.74 1023.04 1022.24 1021.61 1020.90 1020.43 1019.88 1019.27 1018.57 1017.96 1017.53 1016.92 1016.01 1015.05 1014.68 1014.52 1014.27 1013.68 1013.05 1012.36 1011.79 1010.97 1010.60 1010.37 1010.33 1010.29 1010.32 1010.43 1010.15 1009.90 1009.73 1009.66 1009.50 1009.26 1009.03 1008.78 1008.47 1008.42 1008.54
1026.42 1025.73 1025.16 1024.69 1024.16 1023.54 1022.76 1022.01 1021.23 1020.56 1020.12 1019.64 1018.97 1018.48 1017.91 1017.51 1016.86 1016.14 1015.51 1015.13 1014.95 1014.46 1013.93 1013.58 1013.03 1012.53 1011.83 1011.35 1011.15 1010.96 1010.87 1010.74 1010.53 1010.28 1010.12 1010.05 1009.92 1009.76 1009.64 1009.33 1009.06 1008.92 1008.89
1026.56 1025.90 1025.29 1024.89 1024.43 1023.95 1023.27 1022.47 1021.72 1020.98 1020.43 1020.01 1019.54 1018.89 1018.41 1017.92 1017.41 1016.91 1016.40 1015.89 1015.50 1015.27 1014.96 1014.49 1013.98 1013.36 1012.97 1012.53 1012.14 1011.79 1011.48 1011.27 1010.99 1010.69 1010.53 1010.42 1010.31 1010.06 1009.74 1009.54 1009.46 1009.37 1009.25
1026.75 1026.20 1025.55 1024.95 1024.64 1024.21 1023.71 1023.12 1022.43 1021.67 1021.02 1020.47 1020.06 1019.61 1019.01 1018.48 1017.87 1017.32 1016.95 1016.57 1016.25 1015.86 1015.55 1015.11 1014.59 1014.12 1013.64 1013.32 1012.84 1012.52 1012.23 1011.82 1011.56 1011.28 1011.01 1010.76 1010.45 1010.13 1009.90 1009.81 1009.51 1009.33 1009.20
1026.98 1026.52 1025.88 1025.30 1024.94 1024.54 1024.03 1023.57 1023.00 1022.61 1021.94 1021.30 1020.71 1020.24 1019.64 1019.12 1018.66 1018.20 1017.60 1017.12 1016.79 1016.49 1016.05 1015.52 1015.04 1014.61 1014.13 1013.75 1013.33 1013.04 1012.76 1012.35 1011.96 1011.67 1011.28 1010.86 1010.56 1010.27 1010.09 1009.93 1009.68 1009.45 1009.23
1027.16 1026.65 1026.20 1025.73 1025.20 1024.88 1024.48 1023.76 1023.33 1022.98 1022.58 1022.04 1021.49 1020.87 1020.37 1019.96 1019.44 1018.80 1018.25 1017.72 1017.27 1016.76 1016.34 1016.17 1015.72 1015.29 1014.82 1014.43 1013.94 1013.52 1013.17 1012.78 1012.45 1011.94 1011.52 1011.14 1010.73 1010.37 1010.10 1009.92 1009.77 1009.58 1009.32
1027.50 1026.99 1026.53 1026.03 1025.61 1025.25 1024.90 1024.52 1023.85 1023.15 1022.88 1022.52 1021.87 1021.40 1020.90 1020.36 1019.92 1019.40 1018.84 1018.30 1017.75 1017.29 1017.03 1016.72 1016.34 1015.98 1015.46 1014.94 1014.43 1014.02 1013.55 1013.18 1012.87 1012.31 1011.86 1011.44 1011.03 1010.63 1010.33 1010.01 1009.76 1009.58 1009.35
1027.57 1027.11 1026.83 1026.37 1025.91 1025.60 1025.34 1025.06 1024.70 1024.14 1023.41 1022.89 1022.44 1021.96 1021.44 1020.90 1020.46 1020.00 1019.45 1018.69 1018.07 1017.88 1017.65 1017.29 1016.85 1016.39 1015.90 1015.41 1014.83 1014.29 1013.78 1013.29 1012.88 1012.46 1012.03 1011.71 1011.36 1010.96 1010.49 1010.21 1009.99 1009.72 1009.51
1027.63 1027.18 1026.94 1026.65 1026.24 1025.80 1025.59 1025.36 1025.03 1024.66 1024.24 1023.76 1023.06 1022.28 1021.89 1021.44 1020.97 1020.41 1019.93 1019.65 1019.25 1018.69 1018.26 1017.78 1017.33 1016.83 1016.24 1015.80 1015.21 1014.59 1014.03 1013.41 1012.97 1012.59 1012.35 1012.10 1011.76 1011.36 1010.94 1010.62 1010.30 1010.04 1009.78
1028.07 1027.66 1027.14 1026.94 1026.55 1026.09 1025.62 1025.31 1025.17 1024.95 1024.60 1024.22 1023.79 1023.32 1022.58 1021.83 1021.15 1020.75 1020.49 1020.20 1019.76 1019.36 1018.93 1018.36 1017.82 1017.25 1016.64 1016.14 1015.49 1014.87 1014.25 1013.72 1013.32 1012.97 1012.70 1012.40 1012.10 1011.68 1011.20 1010.89 1010.57 1010.25 1009.98
1028.42 1028.10 1027.60 1027.05 1026.82 1026.52 1026.09 1025.68 1025.29 1025.05 1024.89 1024.61 1024.30 1023.94 1023.34 1022.87 1022.37 1021.84 1021.28 1020.68 1020.23 1019.74 1019.33 1018.83 1018.26 1017.67 1017.12 1016.49 1015.79 1015.02 1014.53 1014.09 1013.82 1013.49 1013.03 1012.57 1012.22 1011.84 1011.51 1011.16 1010.81 1010.50 1010.15
1028.17 1027.97 1027.71 1027.47 1027.04 1026.62 1026.49 1026.23 1025.85 1025.41 1025.02 1024.76 1024.47 1024.08 1023.62 1023.18 1022.81 1022.35 1021.84 1021.32 1020.77 1020.19 1019.67 1019.18 1018.56 1017.96 1017.47 1016.93 1016.32 1015.48 1014.91 1014.49 1014.17 1013.76 1013.42 1012.98 1012.59 1012.20 1011.82 1011.50 1011.11 1010.78 1010.37
1028.44 1028.20 1027.98 1027.75 1027.44 1027.00 1026.49 1026.32 1026.04 1025.75 1025.46 1025.01 1024.60 1024.24 1023.84 1023.48 1023.17 1022.81 1022.34 1021.75 1021.11 1020.47 1019.93 1019.39 1018.83 1018.20 1017.67 1017.12 1016.58 1016.13 1015.47 1014.90 1014.73 1014.29 1013.77 1013.36 1012.94 1012.66 1012.31 1011.90 1011.52 1011.15 1010.77
1028.45 1028.22 1028.16 1027.83 1027.51 1027.24 1026.90 1026.54 1026.23 1025.95 1025.51 1025.23 1024.99 1024.53 1024.14 1023.80 1023.41 1023.02 1022.63 1022.15 1021.54 1020.91 1020.34 1019.77 1019.23 1018.67 1018.03 1017.41 1016.76 1016.28 1015.83 1015.24 1014.88 1014.54 1014.10 1013.68 1013.29 1013.02 1012.67 1012.32 1012.07 1011.86 1011.55
1028.75 1028.45 1028.12 1027.76 1027.59 1027.49 1027.29 1027.05 1026.68 1026.29 1025.96 1025.65 1025.16 1024.85 1024.57 1024.08 1023.58 1023.13 1022.72 1022.28 1021.80 1021.28 1020.67 1020.19 1019.59 1018.97 1018.36 1017.79 1017.21 1016.59 1016.04 1015.47 1015.02 1014.78 1014.31 1013.98 1013.66 1013.39 1013.08 1012.77 1012.59 1012.37 1012.16
1028.90 1028.73 1028.64 1028.43 1028.15 1027.62 1027.22 1026.92 1026.74 1026.43 1026.07 1025.69 1025.45 1025.19 1024.69 1024.23 1023.91 1023.49 1022.97 1022.49 1022.01 1021.53 1021.04 1020.49 1019.97 1019.36 1018.72 1018.13 1017.64 1017.07 1016.47 1015.85 1015.34 1015.07 1014.68 1014.39 1014.07 1013.78 1013.55 1013.26 1012.97 1012.70 1012.51
Thickness
5403 5398 5391 5383 5372 5360 5347 5336 5330 5327 5327 5329 5334 5342 5354 5362 5366 5370 5372 5373 5366 5360 5352 5347 5346 5342 5341 5341 5342 5343 5346 5351 5359 5370 5372 5377 5381 5386 5390 5393 5396 5401 5407
5402 5397 5391 5383 5373 5361 5349 5336 5329 5325 5326 5327 5333 5341 5353 5363 5366 5370 5371 5368 5365 5359 5350 5345 5341 5341 5340 5340 5339 5340 5342 5345 5351 5359 5363 5369 5372 5375 5381 5383 5385 5389 5394
5404 5398 5392 5385 5376 5364 5352 5341 5332 5329 5328 5329 5335 5346 5358 5369 5370 5369 5369 5366 5363 5358 5352 5347 5343 5338 5336 5336 5335 5336 5338 5343 5346 5352 5359 5361 5363 5366 5370 5372 5375 5380 5384
5405 5400 5394 5387 5378 5366 5355 5346 5339 5334 5333 5335 5338 5348 5361 5373 5378 5370 5366 5363 5360 5356 5352 5348 5344 5341 5340 5337 5335 5335 5335 5335 5340 5346 5352 5355 5357 5358 5360 5366 5367 5368 5373
5406 5402 5396 5388 5378 5369 5361 5353 5345 5341 5338 5339 5342 5347 5357 5361 5363 5361 5359 5358 5354 5351 5349 5348 5347 5344 5341 5339 5337 5337 5337 5337 5336 5339 5345 5348 5350 5350 5350 5351 5353 5356 5359
5406 5403 5398 5391 5384 5375 5367 5361 5352 5347 5344 5344 5343 5344 5348 5353 5353 5350 5346 5345 5345 5343 5342 5341 5345 5345 5343 5342 5341 5343 5337 5338 5339 5341 5342 5345 5342 5344 5345 5343 5345 5349 5355
5406 5404 5400 5394 5387 5380 5373 5368 5362 5355 5349 5348 5345 5342 5338 5343 5343 5341 5338 5337 5338 5338 5337 5337 5338 5340 5341 5341 5338 5336 5334 5337 5341 5342 5342 5340 5340 5340 5342 5341 5341 5346 5351
5408 5405 5402 5396 5389 5386 5379 5374 5367 5362 5356 5350 5345 5340 5337 5334 5332 5330 5331 5330 5332 5332 5332 5334 5333 5335 5338 5336 5333 5332 5331 5333 5337 5339 5337 5336 5338 5340 5340 5341 5341 5341 5341
5410 5407 5402 5398 5393 5389 5383 5379 5371 5364 5361 5355 5347 5342 5337 5332 5332 5323 5324 5326 5327 5327 5329 5332 5332 5333 5332 5331 5330 5328 5327 5326 5328 5331 5333 5336 5338 5342 5340 5337 5336 5336 5340
5412 5407 5402 5398 5395 5391 5385 5381 5375 5369 5362 5357 5352 5345 5340 5336 5334 5329 5322 5322 5323 5325 5325 5326 5331 5331 5330 5327 5324 5324 5324 5323 5322 5323 5325 5328 5330 5333 5336 5336 5337 5339 5337
5411 5408 5404 5400 5396 5392 5389 5383 5379 5372 5366 5361 5357 5352 5345 5339 5337 5336 5331 5325 5320 5319 5319 5321 5323 5327 5327 5326 5324 5322 5320 5319 5321 5322 5323 5323 5325 5327 5328 5330 5333 5333 5333
5414 5411 5408 5403 5399 5395 5391 5388 5384 5379 5373 5368 5364 5359 5354 5347 5342 5339 5336 5331 5325 5322 5320 5316 5315 5316 5319 5320 5319 5319 5317 5316 5316 5317 5318 5317 5317 5318 5319 5321 5323 5324 5324
5417 5415 5412 5408 5404 5398 5394 5392 5389 5385 5381 5375 5370 5365 5360 5355 5350 5344 5339 5336 5332 5327 5321 5318 5315 5315 5313 5312 5312 5312 5313 5312 5313 5314 5313 5312 5311 5312 5314 5315 5315 5316 5317
5419 5417 5416 5414 5409 5404 5399 5395 5392 5389 5385 5382 5375 5369 5365 5361 5357 5352 5347 5341 5335 5331 5326 5325 5323 5320 5319 5316 5314 5312 5310 5309 5308 5308 5308 5308 5309 5309 5309 5309 5311 5312 5314
5421 5419 5419 5418 5414 5409 5405 5400 5396 5391 5387 5383 5381 5376 5372 5368 5363 5357 5353 5349 5343 5338 5332 5331 5330 5327 5325 5323 5321 5318 5315 5313 5311 5309 5309 5309 5307 5307 5306 5306 5306 5307 5309
5424 5422 5421 5419 5418 5413 5408 5406 5401 5395 5390 5386 5383 5381 5376 5370 5367 5365 5361 5356 5351 5347 5344 5340 5337 5333 5331 5327 5325 5322 5320 5317 5315 5314 5313 5312 5311 5310 5309 5307 5305 5303 5305
5426 5424 5422 5420 5419 5416 5413 5409 5406 5404 5398 5393 5390 5387 5384 5379 5375 5371 5368 5364 5360 5356 5354 5349 5345 5340 5336 5333 5331 5328 5326 5324 5320 5319 5317 5315 5314 5314 5312 5311 5310 5308 5307
5431 5429 5425 5423 5422 5419 5415 5411 5407 5404 5402 5400 5396 5393 5389 5385 5381 5378 5374 5372 5371 5367 5362 5357 5353 5349 5345 5341 5338 5336 5334 5331 5328 5325 5324 5321 5318 5317 5317 5314 5312 5310 5309
5434 5433 5429 5426 5424 5423 5419 5415 5412 5408 5405 5401 5400 5401 5398 5392 5389 5386 5383 5379 5375 5373 5368 5365 5360 5358 5355 5351 5348 5346 5343 5341 5337 5334 5329 5324 5321 5318 5318 5316 5315 5313 5312
5431 5431 5431 5428 5425 5424 5423 5420 5416 5412 5409 5405 5402 5399 5400 5398 5399 5396 5391 5386 5383 5378 5374 5371 5368 5365 5363 5360 5359 5357 5354 5351 5346 5342 5336 5331 5327 5324 5323 5320 5318 5317 5316
5429 5428 5429 5430 5427 5424 5422 5420 5419 5416 5412 5409 5406 5404 5403 5399 5397 5396 5394 5392 5389 5386 5382 5378 5376 5374 5370 5368 5368 5367 5364 5360 5355 5349 5345 5342 5337 5334 5330 5328 5325 5323 5322
5433 5432 5430 5428 5428 5427 5423 5419 5417 5416 5415 5413 5410 5408 5406 5403 5402 5400 5398 5397 5395 5392 5390 5386 5384 5382 5379 5377 5375 5375 5373 5370 5365 5360 5355 5352 5348 5344 5340 5337 5334 5331 5329
5430 5430 5428 5427 5426 5426 5427 5424 5421 5418 5415 5414 5413 5411 5409 5407 5405 5403 5401 5400 5399 5398 5396 5394 5392 5391 5388 5386 5384 5381 5379 5377 5373 5369 5366 5361 5358 5354 5350 5346 5344 5341 5338
5430 5429 5427 5427 5427 5425 5425 5424 5423 5421 5420 5417 5414 5413 5412 5410 5409 5407 5405 5403 5403 5402 5401 5401 5399 5397 5395 5393 5393 5390 5386 5384 5382 5378 5376 5372 5368 5362 5358 5355 5352 5348 5344
5430 5427 5426 5427 5425 5422 5421 5420 5420 5420 5419 5417 5417 5415 5413 5412 5412 5411 5409 5408 5407 5406 5405 5404 5404 5403 5402 5400 5399 5398 5396 5393 5391 5388 5384 5380 5376 5372 5368 5363 5358 5354 5350
5433 5428 5422 5419 5418 5421 5422 5422 5422 5420 5420 5420 5418 5416 5416 5415 5413 5412 5412 5411 5411 5410 5409 5408 5407 5407 5407 5406 5405 5404 5402 5401 5399 5396 5392 5388 5385 5381 5377 5373 5369 5365 5360